Regional Weather Roundup
Issued by NWS

Home | Current Version | Previous Version | Text Only | Print | Product List | Glossary On
Versions: 1 2 3 4 5 6 7 8 9 10 11 12 13 14 15 16 17 18 19 20 21 22 23 24 25 26 27 28 29 30 31 32 33 34 35 36 37 38 39 40 41 42 43 44 45 46 47 48 49 50
378
ASHW40 PHFO 300912
RWRHI

WEATHER ROUNDUP FOR HAWAII
NATIONAL WEATHER SERVICE HONOLULU HI
1100 PM HST SAT APR 29 2017

THIS IS AN AUTOMATED REPORT THAT HAS NOT BEEN QUALITY CONTROLLED.

NOTE..."FAIR" INDICATES FEW OR NO CLOUDS BELOW 12,000 FEET WITH NO
SIGNIFICANT WEATHER AND/OR OBSTRUCTIONS TO VISIBILITY.

* - THESE SITES REPORT LIMITED FIELDS

HIZ001>004-301000-
KAUAI-NIIHAU-

CITY           SKY/WX    TMP DP  RH WIND       PRES   REMARKS
LIHUE APT      CLOUDY    67  55  65 N6        29.91S
PORT ALLEN*      N/A     66 N/A N/A N6          N/A
POIPU*           N/A     64 N/A N/A NE5         N/A
PRINCEVILLE*     N/A     63 N/A N/A SW3         N/A
KOKOLE POINT*  NOT AVBL
MOLOAA DAIRY*    N/A     61  55  82 NW2         N/A
WAIMEA HTS*    NOT AVBL
PUU OPAE*      NOT AVBL
PUU LUA*       NOT AVBL
MAKAHA RIDGE*  NOT AVBL
$$

HIZ005>011-301000-
OAHU-

CITY           SKY/WX    TMP DP  RH WIND       PRES   REMARKS
HONOLULU       MOCLDY    69  58  67 N3        29.89S
KALAELOA       MOCLDY    71  58  63 NE7       29.90S
KANEOHE MCB    NOT AVBL
WHEELER FIELD  NOT AVBL
BELLOWS*       NOT AVBL
KAHUKU*        NOT AVBL
WHEELER*       NOT AVBL
WAIANAE HARBOR NOT AVBL
DILLINGHAM*      N/A     73  66  78 NW1G8       N/A
KAHUKU TRN*      N/A     64  63  94 NW1G8       N/A
KAWAILOA*      NOT AVBL
KII*             N/A     68  63  83 E12         N/A
MAKUA RANGE*     N/A     66  57  72 W10G17      N/A
OAHU FOREST NW NOT AVBL
SCHOFIELD BRK*   N/A     63  57  82 MISG        N/A
SCHOFIELD S*   NOT AVBL
WAIANAE VLY*   NOT AVBL
KUAOKALA*      NOT AVBL
HONOULIUULI*   NOT AVBL
MOKUOLOE IS*   NOT AVBL
PALEHUA*       NOT AVBL
WAIAWA PHB*    NOT AVBL
$$

HIZ012>013-301000-
MOLOKAI-

CITY           SKY/WX    TMP DP  RH WIND       PRES   REMARKS
MOLOKAI AIRPT  CLOUDY    64  63  96 N8        29.92R
KALAUPAPA      NOT AVBL
MAKAPULAPAI*   NOT AVBL
MOLOKAI 1*     NOT AVBL
PUU ALII*      NOT AVBL
$$

HIZ016-301000-
KAHOOLAWE-

CITY           SKY/WX    TMP DP  RH WIND       PRES   REMARKS
KAHOOLAWE*     NOT AVBL
HAKIOAWA*      NOT AVBL
HONOKANAIA*      N/A     66  64  93 VRB10G18  29.83R
KANELOA*         N/A     66  66 100 VRB3G22   29.94S
KEALIALALO*    NOT AVBL
LUA MAKIKA*    NOT AVBL
$$

HIZ014>015-301000-
LANAI-

CITY           SKY/WX    TMP DP  RH WIND       PRES   REMARKS
LANAI CITY     LGT RAIN  62  61  96 N8        29.94S
LANAI 1*       NOT AVBL
$$

HIZ017>028-301000-
MAUI-

CITY           SKY/WX    TMP DP  RH WIND       PRES   REMARKS
KAHULUI        RAIN      66  64  93 N10       29.92S FOG
KAPALUA-W MAUI NOT AVBL
HANA AIRPORT   NOT AVBL
HANA*            N/A     64 N/A N/A W3G9        N/A
HALEAKALA SUMM   N/A     41  41 100 SW10G38     N/A
MAALAEA BAY*   NOT AVBL
HALEAKALA*     NOT AVBL
KAUPO GAP*     NOT AVBL
KULA 1*          N/A     50  49  98 S14G30      N/A
$$

HIZ023>026-301000-
BIG ISLAND OF HAWAII COAST AND LOWER SLOPES-

CITY           SKY/WX    TMP DP  RH WIND       PRES   REMARKS
KAILUA KONA    CLOUDY    77  68  73 S21       29.85S
HILO           CLOUDY    74  65  73 SE13      29.85F
HONOKAA*         N/A     66 N/A N/A VRB1        N/A
KAWAIHAE MWT*    N/A     75 N/A N/A NW10G17     N/A
KAWAIHAE*      NOT AVBL
SOUTH POINT*     N/A     70 N/A N/A CALM        N/A
UPOLU AIRPORT* NOT AVBL
KAMUELA*       CLOUDY    64  63  94 NW7       29.97R
HAKALAU*         N/A     46  45  93 SW3         N/A
KALOKO-HONOKO* NOT AVBL
PALI 2*          N/A     63  63 100 E8G16       N/A
KEALAKOMO*       N/A     73  66  78 W12G22      N/A
KAUPULEHU*     NOT AVBL
KAPAPALA*        N/A     64  64 100 NW3         N/A
LOWER KAHUKU*  NOT AVBL
PUHE CS*       NOT AVBL
PUHO CS*       NOT AVBL
PTA KEAMUKU*     N/A     61  57  88 CALM        N/A
WAIKOLOA*      NOT AVBL
$$

HIZ027>028-301000-
BIG ISLAND OF HAWAII INTERIOR AND SUMMMITS-

CITY           SKY/WX    TMP DP  RH WIND       PRES   REMARKS
BRADSHAW FIELD NOT AVBL
MK VISITOR CEN   N/A     46  21  36 NW6         N/A
MAUNA KEA*       N/A     27  14  59 SW53G64     N/A  WCI   6
MAUNA LOA*     NOT AVBL
MAUNA LOA 1*   NOT AVBL
PTA KIPUKA*      N/A     54  54 100 SW9G21      N/A
PTA RANGE 17*    N/A     66  55  68 NW2G14      N/A
PTA WEST*        N/A    N/A N/A N/A SE8         N/A
NENE CABIN*    NOT AVBL
AHUMOA*        NOT AVBL
PTA PORTABLE*  NOT AVBL
PUU MALI*        N/A     50  50 100 SW3         N/A
$$

HIC003-301000-
NORTHWEST ISLANDS-

CITY           SKY/WX    TMP DP  RH WIND       PRES   REMARKS
MIDWAY ISLAND  CLEAR     64  55  72 CALM      30.27R
MIDWAY NOS*    NOT AVBL
FRENCH FRIGATE NOT AVBL
$$

PHZ110>124-180-301000-
BUOY REPORTS

STATION/POSITION TIME  TEMP    WIND        PRES    WAVE   SWELL
                       AIR SEA DIR/SP/G            HT/PER HT/DIR
                 (UTC) (F)     (DEG/KT/KT) (MB)    (FT/S) (FT/D)
BUOY 51001       0850   69 76   10/ 19/ 25 1011.1R  10/10   7/330
BUOY 51101       0850   70 75  340/ 19/ 23 1011.6F   9/ 8   5/140
BUOY 51100       NOT AVBL
BUOY 51002       0850   78 79  180/  8/ 12 1012.0R   9/10   8/320
BUOY 51003       0850   74 79   30/ 10/ 14 1012.4S   8/10   7/340
BUOY 51004       0850      78  130/ 14/ 16 1013.5F   5/15   5/160
BARBERS PT BUOY  NOT AVBL
WAIMEA BAY BUOY  0802      77                N/A     6/ 9   2/320
KAILUA BAY BUOY  0834      78                N/A     6/ 9   2/350
LANAI BUOY       0845      78                N/A     5/15   3/200
BARBERS PT 2     NOT AVBL
PAUWELA MAUI     0839      77                N/A     7/ 9   2/330
HILO             0842      78                N/A     7/10   2/340
KANEOHE BAY BUOY 0855      78                N/A     5/ 8   2/ 10
HANALEI KAUAI    0852      78                N/A     7/11   3/320
KAHULUI HARBOR   0842   66 76  340/ 12/ 14 1012.9F
HONOLULU HARBOR  0842   70 79   60/  7/ 13 1012.8F
KILO NALU        NOT AVBL
HILO HARBOR      0842   74 78  160/ 12/ 17 1010.5F
MOKUOLOE         0836   67 78   20/ 14/ 17 1012.5S
NAWILIWILI       0848   67     280/  1/  3 1012.4S
WHOTS BUOY       NOT AVBL
BUOY 51028       NOT AVBL
$$

......................KEY........................................
  SKY/WX - SKY CONDITIONS/PRESENT WEATHER
  TMP    - TEMPERATURE IN FAHRENHEIT
  DWPT   - DEWPOINT IN FAHRENHEIT
  RH     - RELATIVE HUMIDITY IN PERCENT
  WIND   - DIRECTION AND SPEED /MPH FOR ISLANDS...KTS FOR BUOYS/
  PRES   - MEAN SEA LEVEL PRESSURE IN INCHES OF HG
  VSB    - VISIBILITY IN MILES
  HX     - HEAT INDEX
  WCI    - WIND CHILL INDEX
  VRB    - VARIABLE WIND DIRECTION
  N/A    - NOT AVAILABLE




USA.gov is the U.S. government's official web portal to all federal, state and local government web resources and services.